Year,Month,Day,Hour,Minute,Value (Times are PST for temperature in C)
2015,08,15,00,00,17.60
2015,08,15,00,01,17.60
2015,08,15,00,02,17.60
2015,08,15,00,03,17.50
2015,08,15,00,04,17.50
2015,08,15,00,05,17.50
2015,08,15,00,06,17.40
2015,08,15,00,07,17.40
2015,08,15,00,08,17.40
2015,08,15,00,09,17.40
2015,08,15,00,10,17.40
2015,08,15,00,11,17.40
2015,08,15,00,12,17.30
2015,08,15,00,13,17.30
2015,08,15,00,14,17.30
2015,08,15,00,15,17.30
2015,08,15,00,16,17.30
2015,08,15,00,17,17.20
2015,08,15,00,18,17.20
2015,08,15,00,19,17.20
2015,08,15,00,20,17.20
2015,08,15,00,21,17.10
2015,08,15,00,22,17.10
2015,08,15,00,23,17.10
2015,08,15,00,24,17.10
2015,08,15,00,25,17.10
2015,08,15,00,26,17.10
2015,08,15,00,27,17.10
2015,08,15,00,28,17.10
2015,08,15,00,29,17.20
2015,08,15,00,30,17.20
2015,08,15,00,31,17.20
2015,08,15,00,32,17.20
2015,08,15,00,33,17.30
2015,08,15,00,34,17.30
2015,08,15,00,35,17.30
2015,08,15,00,36,17.40
2015,08,15,00,37,17.40
2015,08,15,00,38,17.30
2015,08,15,00,39,17.30
2015,08,15,00,40,17.30
2015,08,15,00,41,17.30
2015,08,15,00,42,17.30
2015,08,15,00,43,17.20
2015,08,15,00,44,17.20
2015,08,15,00,45,17.20
2015,08,15,00,46,17.20
2015,08,15,00,47,17.20
2015,08,15,00,48,17.20
2015,08,15,00,49,17.20
2015,08,15,00,50,17.20
2015,08,15,00,51,17.10
2015,08,15,00,52,17.10
2015,08,15,00,53,17.10
2015,08,15,00,54,17.10
2015,08,15,00,55,17.10
2015,08,15,00,56,17.10
2015,08,15,00,57,17.10
2015,08,15,00,58,17.00
2015,08,15,00,59,17.00
2015,08,15,01,00,17.00
2015,08,15,01,01,17.00
2015,08,15,01,02,17.00
2015,08,15,01,03,17.00
2015,08,15,01,04,17.00
2015,08,15,01,05,17.00
2015,08,15,01,06,16.90
2015,08,15,01,07,16.90
2015,08,15,01,08,16.90
2015,08,15,01,09,16.90
2015,08,15,01,10,16.90
2015,08,15,01,11,17.00
2015,08,15,01,12,16.90
2015,08,15,01,13,17.00
2015,08,15,01,14,17.00
2015,08,15,01,15,17.00
2015,08,15,01,16,17.00
2015,08,15,01,17,17.00
2015,08,15,01,18,17.00
2015,08,15,01,19,17.00
2015,08,15,01,20,17.00
2015,08,15,01,21,17.00
2015,08,15,01,22,17.00
2015,08,15,01,23,17.10
2015,08,15,01,24,17.10
2015,08,15,01,25,17.10
2015,08,15,01,26,17.10
2015,08,15,01,27,17.10
2015,08,15,01,28,17.10
2015,08,15,01,29,17.10
2015,08,15,01,30,17.10
2015,08,15,01,31,17.10
2015,08,15,01,32,17.10
2015,08,15,01,33,17.10
2015,08,15,01,34,17.10
2015,08,15,01,35,17.10
2015,08,15,01,36,17.10
2015,08,15,01,37,17.10
2015,08,15,01,38,17.10
2015,08,15,01,39,17.10
2015,08,15,01,40,17.00
2015,08,15,01,41,17.00
2015,08,15,01,42,17.00
2015,08,15,01,43,17.00
2015,08,15,01,44,17.00
2015,08,15,01,45,17.10
2015,08,15,01,46,17.00
2015,08,15,01,47,17.00
2015,08,15,01,48,17.10
2015,08,15,01,49,17.00
2015,08,15,01,50,17.10
2015,08,15,01,51,17.10
2015,08,15,01,52,17.10
2015,08,15,01,53,17.10
2015,08,15,01,54,17.10
2015,08,15,01,55,17.10
2015,08,15,01,56,17.10
2015,08,15,01,57,17.10
2015,08,15,01,58,17.10
2015,08,15,01,59,17.10
2015,08,15,02,00,17.10
2015,08,15,02,01,17.10
2015,08,15,02,02,17.10
2015,08,15,02,03,17.10
2015,08,15,02,04,17.10
2015,08,15,02,05,17.10
2015,08,15,02,06,17.10
2015,08,15,02,07,17.10
2015,08,15,02,08,17.10
2015,08,15,02,09,17.10
2015,08,15,02,10,17.10
2015,08,15,02,11,17.10
2015,08,15,02,12,17.10
2015,08,15,02,13,17.10
2015,08,15,02,14,17.10
2015,08,15,02,15,17.10
2015,08,15,02,16,17.10
2015,08,15,02,17,17.10
2015,08,15,02,18,17.10
2015,08,15,02,19,17.10
2015,08,15,02,20,17.10
2015,08,15,02,21,17.20
2015,08,15,02,22,17.20
2015,08,15,02,23,17.20
2015,08,15,02,24,17.20
2015,08,15,02,25,17.20
2015,08,15,02,26,17.20
2015,08,15,02,27,17.20
2015,08,15,02,28,17.20
2015,08,15,02,29,17.20
2015,08,15,02,30,17.20
2015,08,15,02,31,17.20
2015,08,15,02,32,17.20
2015,08,15,02,33,17.20
2015,08,15,02,34,17.20
2015,08,15,02,35,17.20
2015,08,15,02,36,17.20
2015,08,15,02,37,17.20
2015,08,15,02,38,17.20
2015,08,15,02,39,17.20
2015,08,15,02,40,17.20
2015,08,15,02,41,17.20
2015,08,15,02,42,17.20
2015,08,15,02,43,17.20
2015,08,15,02,44,17.20
2015,08,15,02,45,17.20
2015,08,15,02,46,17.20
2015,08,15,02,47,17.20
2015,08,15,02,48,17.20
2015,08,15,02,49,17.20
2015,08,15,02,50,17.20
2015,08,15,02,51,17.20
2015,08,15,02,52,17.20
2015,08,15,02,53,17.20
2015,08,15,02,54,17.20
2015,08,15,02,55,17.20
2015,08,15,02,56,17.20
2015,08,15,02,57,17.20
2015,08,15,02,58,17.20
2015,08,15,02,59,17.20
2015,08,15,03,00,17.20
2015,08,15,03,01,17.20
2015,08,15,03,02,17.20
2015,08,15,03,06,17.20
2015,08,15,03,07,17.20
2015,08,15,03,08,17.20
2015,08,15,03,09,17.20
2015,08,15,03,10,17.20
2015,08,15,03,11,17.30
2015,08,15,03,12,17.30
2015,08,15,03,13,17.30
2015,08,15,03,14,17.30
2015,08,15,03,15,17.30
2015,08,15,03,16,17.30
2015,08,15,03,17,17.30
2015,08,15,03,18,17.30
2015,08,15,03,19,17.30
2015,08,15,03,20,17.30
2015,08,15,03,21,17.30
2015,08,15,03,22,17.30
2015,08,15,03,23,17.30
2015,08,15,03,24,17.30
2015,08,15,03,25,17.30
2015,08,15,03,26,17.30
2015,08,15,03,27,17.30
2015,08,15,03,28,17.30
2015,08,15,03,29,17.30
2015,08,15,03,30,17.30
2015,08,15,03,31,17.30
2015,08,15,03,32,17.30
2015,08,15,03,33,17.30
2015,08,15,03,34,17.30
2015,08,15,03,35,17.40
2015,08,15,03,36,17.40
2015,08,15,03,37,17.40
2015,08,15,03,38,17.40
2015,08,15,03,39,17.40
2015,08,15,03,40,17.40
2015,08,15,03,41,17.40
2015,08,15,03,42,17.40
2015,08,15,03,43,17.40
2015,08,15,03,44,17.40
2015,08,15,03,45,17.50
2015,08,15,03,46,17.50
2015,08,15,03,47,17.50
2015,08,15,03,48,17.50
2015,08,15,03,49,17.50
2015,08,15,03,50,17.50
2015,08,15,03,51,17.50
2015,08,15,03,52,17.50
2015,08,15,03,53,17.50
2015,08,15,03,54,17.60
2015,08,15,03,55,17.60
2015,08,15,03,56,17.60
2015,08,15,03,57,17.60
2015,08,15,03,58,17.60
2015,08,15,03,59,17.60
2015,08,15,04,00,17.60
2015,08,15,04,01,17.60
2015,08,15,04,02,17.60
2015,08,15,04,03,17.60
2015,08,15,04,04,17.60
2015,08,15,04,05,17.60
2015,08,15,04,06,17.70
2015,08,15,04,07,17.60
2015,08,15,04,08,17.70
2015,08,15,04,09,17.70
2015,08,15,04,10,17.70
2015,08,15,04,11,17.70
2015,08,15,04,12,17.70
2015,08,15,04,13,17.70
2015,08,15,04,14,17.70
2015,08,15,04,15,17.70
2015,08,15,04,16,17.70
2015,08,15,04,17,17.70
2015,08,15,04,18,17.70
2015,08,15,04,19,17.70
2015,08,15,04,20,17.70
2015,08,15,04,21,17.70
2015,08,15,04,22,17.70
2015,08,15,04,23,17.60
2015,08,15,04,24,17.60
2015,08,15,04,25,17.60
2015,08,15,04,26,17.60
2015,08,15,04,27,17.60
2015,08,15,04,28,17.60
2015,08,15,04,29,17.60
2015,08,15,04,30,17.60
2015,08,15,04,31,17.60
2015,08,15,04,32,17.50
2015,08,15,04,33,17.50
2015,08,15,04,34,17.50
2015,08,15,04,35,17.50
2015,08,15,04,36,17.50
2015,08,15,04,37,17.50
2015,08,15,04,38,17.40
2015,08,15,04,39,17.40
2015,08,15,04,40,17.40
2015,08,15,04,41,17.40
2015,08,15,04,42,17.40
2015,08,15,04,43,17.40
2015,08,15,04,44,17.40
2015,08,15,04,45,17.40
2015,08,15,04,46,17.40
2015,08,15,04,47,17.40
2015,08,15,04,48,17.40
2015,08,15,04,49,17.40
2015,08,15,04,50,17.40
2015,08,15,04,51,17.40
2015,08,15,04,52,17.40
2015,08,15,04,53,17.30
2015,08,15,04,54,17.30
2015,08,15,04,55,17.30
2015,08,15,04,56,17.30
2015,08,15,04,57,17.30
2015,08,15,04,58,17.30
2015,08,15,04,59,17.20
2015,08,15,05,00,17.20
2015,08,15,05,01,17.20
2015,08,15,05,02,17.10
2015,08,15,05,03,17.10
2015,08,15,05,04,17.00
2015,08,15,05,05,17.00
2015,08,15,05,06,16.90
2015,08,15,05,07,16.90
2015,08,15,05,08,16.80
2015,08,15,05,09,16.80
2015,08,15,05,10,16.80
2015,08,15,05,11,16.70
2015,08,15,05,12,16.70
2015,08,15,05,13,16.70
2015,08,15,05,14,16.60
2015,08,15,05,15,16.60
2015,08,15,05,16,16.60
2015,08,15,05,17,16.50
2015,08,15,05,18,16.50
2015,08,15,05,19,16.50
2015,08,15,05,20,16.40
2015,08,15,05,21,16.40
2015,08,15,05,22,16.30
2015,08,15,05,23,16.30
2015,08,15,05,24,16.30
2015,08,15,05,25,16.30
2015,08,15,05,26,16.30
2015,08,15,05,27,16.20
2015,08,15,05,28,16.20
2015,08,15,05,29,16.20
2015,08,15,05,30,16.20
2015,08,15,05,31,16.20
2015,08,15,05,32,16.20
2015,08,15,05,33,16.10
2015,08,15,05,34,16.10
2015,08,15,05,35,16.10
2015,08,15,05,36,16.10
2015,08,15,05,37,16.10
2015,08,15,05,38,16.00
2015,08,15,05,39,16.00
2015,08,15,05,40,16.00
2015,08,15,05,41,16.00
2015,08,15,05,42,16.00
2015,08,15,05,43,15.90
2015,08,15,05,44,15.90
2015,08,15,05,45,15.90
2015,08,15,05,46,15.90
2015,08,15,05,47,15.90
2015,08,15,05,48,15.90
2015,08,15,05,49,15.80
2015,08,15,05,50,15.80
2015,08,15,05,51,15.80
2015,08,15,05,52,15.80
2015,08,15,05,53,15.80
2015,08,15,05,54,15.80
2015,08,15,05,55,15.70
2015,08,15,05,56,15.70
2015,08,15,05,57,15.70
2015,08,15,05,58,15.70
2015,08,15,05,59,15.70
2015,08,15,06,00,15.70
2015,08,15,06,01,15.70
2015,08,15,06,02,15.70
2015,08,15,06,03,15.70
2015,08,15,06,04,15.60
2015,08,15,06,05,15.60
2015,08,15,06,06,15.60
2015,08,15,06,07,15.60
2015,08,15,06,08,15.60
2015,08,15,06,09,15.60
2015,08,15,06,10,15.60
2015,08,15,06,11,15.60
2015,08,15,06,12,15.50
2015,08,15,06,13,15.60
2015,08,15,06,14,15.50
2015,08,15,06,15,15.50
2015,08,15,06,16,15.50
2015,08,15,06,17,15.40
2015,08,15,06,18,15.40
2015,08,15,06,19,15.40
2015,08,15,06,20,15.40
2015,08,15,06,21,15.40
2015,08,15,06,22,15.40
2015,08,15,06,23,15.40
2015,08,15,06,24,15.30
2015,08,15,06,25,15.30
2015,08,15,06,26,15.30
2015,08,15,06,27,15.30
2015,08,15,06,28,15.30
2015,08,15,06,29,15.30
2015,08,15,06,30,15.30
2015,08,15,06,31,15.30
2015,08,15,06,32,15.30
2015,08,15,06,33,15.30
2015,08,15,06,34,15.30
2015,08,15,06,35,15.30
2015,08,15,06,36,15.30
2015,08,15,06,37,15.30
2015,08,15,06,38,15.30
2015,08,15,06,39,15.30
2015,08,15,06,40,15.30
2015,08,15,06,41,15.30
2015,08,15,06,42,15.30
2015,08,15,06,43,15.30
2015,08,15,06,44,15.30
2015,08,15,06,45,15.30
2015,08,15,06,46,15.30
2015,08,15,06,47,15.30
2015,08,15,06,48,15.30
2015,08,15,06,49,15.30
2015,08,15,06,50,15.30
2015,08,15,06,51,15.30
2015,08,15,06,52,15.30
2015,08,15,06,53,15.30
2015,08,15,06,54,15.30
2015,08,15,06,55,15.30
2015,08,15,06,56,15.30
2015,08,15,06,57,15.30
2015,08,15,06,58,15.30
2015,08,15,06,59,15.30
2015,08,15,07,00,15.30
2015,08,15,07,01,15.30
2015,08,15,07,02,15.30
2015,08,15,07,03,15.30
2015,08,15,07,04,15.30
2015,08,15,07,05,15.30
2015,08,15,07,06,15.30
2015,08,15,07,07,15.30
2015,08,15,07,08,15.30
2015,08,15,07,09,15.30
2015,08,15,07,10,15.30
2015,08,15,07,11,15.30
2015,08,15,07,12,15.30
2015,08,15,07,13,15.30
2015,08,15,07,14,15.30
2015,08,15,07,15,15.30
2015,08,15,07,16,15.30
2015,08,15,07,17,15.30
2015,08,15,07,18,15.30
2015,08,15,07,19,15.20
2015,08,15,07,20,15.30
2015,08,15,07,21,15.30
2015,08,15,07,22,15.30
2015,08,15,07,23,15.30
2015,08,15,07,24,15.30
2015,08,15,07,25,15.30
2015,08,15,07,26,15.30
2015,08,15,07,27,15.30
2015,08,15,07,28,15.30
2015,08,15,07,29,15.30
2015,08,15,07,30,15.30
2015,08,15,07,31,15.30
2015,08,15,07,32,15.30
2015,08,15,07,33,15.30
2015,08,15,07,34,15.30
2015,08,15,07,35,15.30
2015,08,15,07,36,15.30
2015,08,15,07,37,15.30
2015,08,15,07,38,15.30
2015,08,15,07,39,15.30
2015,08,15,07,40,15.30
2015,08,15,07,41,15.30
2015,08,15,07,42,15.30
2015,08,15,07,43,15.30
2015,08,15,07,44,15.30
2015,08,15,07,45,15.30
2015,08,15,07,46,15.30
2015,08,15,07,47,15.30
2015,08,15,07,48,15.30
2015,08,15,07,49,15.30
2015,08,15,07,50,15.40
2015,08,15,07,51,15.40
2015,08,15,07,52,15.40
2015,08,15,07,53,15.40
2015,08,15,07,54,15.40
2015,08,15,07,55,15.40
2015,08,15,07,56,15.40
2015,08,15,07,57,15.40
2015,08,15,07,58,15.40
2015,08,15,07,59,15.40
2015,08,15,08,00,15.40
2015,08,15,08,01,15.40
2015,08,15,08,02,15.40
2015,08,15,08,03,15.40
2015,08,15,08,04,15.40
2015,08,15,08,05,15.50
2015,08,15,08,06,15.50
2015,08,15,08,07,15.50
2015,08,15,08,08,15.50
2015,08,15,08,09,15.50
2015,08,15,08,10,15.50
2015,08,15,08,11,15.50
2015,08,15,08,12,15.50
2015,08,15,08,13,15.50
2015,08,15,08,14,15.50
2015,08,15,08,15,15.60
2015,08,15,08,16,15.60
2015,08,15,08,17,15.60
2015,08,15,08,18,15.60
2015,08,15,08,19,15.60
2015,08,15,08,20,15.60
2015,08,15,08,21,15.60
2015,08,15,08,22,15.60
2015,08,15,08,23,15.60
2015,08,15,08,24,15.60
2015,08,15,08,25,15.60
2015,08,15,08,26,15.60
2015,08,15,08,27,15.70
2015,08,15,08,28,15.70
2015,08,15,08,29,15.70
2015,08,15,08,30,15.70
2015,08,15,08,31,15.70
2015,08,15,08,32,15.70
2015,08,15,08,33,15.70
2015,08,15,08,34,15.70
2015,08,15,08,35,15.70
2015,08,15,08,36,15.70
2015,08,15,08,37,15.70
2015,08,15,08,38,15.70
2015,08,15,08,39,15.80
2015,08,15,08,40,15.80
2015,08,15,08,41,15.80
2015,08,15,08,42,15.80
2015,08,15,08,43,15.80
2015,08,15,08,44,15.80
2015,08,15,08,45,15.80
2015,08,15,08,46,15.80
2015,08,15,08,47,15.80
2015,08,15,08,48,15.80
2015,08,15,08,49,15.80
2015,08,15,08,50,15.80
2015,08,15,08,51,15.90
2015,08,15,08,52,15.90
2015,08,15,08,53,15.90
2015,08,15,08,54,15.90
2015,08,15,08,55,15.80
2015,08,15,08,56,15.80
2015,08,15,08,57,15.80
2015,08,15,08,58,15.80
2015,08,15,08,59,15.80
2015,08,15,09,00,15.90
2015,08,15,09,01,15.90
2015,08,15,09,02,15.90
2015,08,15,09,03,15.90
2015,08,15,09,04,15.90
2015,08,15,09,05,15.90
2015,08,15,09,06,15.90
2015,08,15,09,07,15.90
2015,08,15,09,08,16.00
2015,08,15,09,09,16.00
2015,08,15,09,10,16.00
2015,08,15,09,11,16.00
2015,08,15,09,12,16.00
2015,08,15,09,13,16.00
2015,08,15,09,14,16.10
2015,08,15,09,15,16.10
2015,08,15,09,16,16.10
2015,08,15,09,17,16.10
2015,08,15,09,18,16.10
2015,08,15,09,19,16.10
2015,08,15,09,20,16.20
2015,08,15,09,21,16.20
2015,08,15,09,22,16.20
2015,08,15,09,23,16.20
2015,08,15,09,24,16.20
2015,08,15,09,25,16.20
2015,08,15,09,26,16.30
2015,08,15,09,27,16.30
2015,08,15,09,28,16.30
2015,08,15,09,29,16.30
2015,08,15,09,30,16.30
2015,08,15,09,31,16.30
2015,08,15,09,32,16.30
2015,08,15,09,33,16.30
2015,08,15,09,34,16.30
2015,08,15,09,35,16.30
2015,08,15,09,36,16.20
2015,08,15,09,37,16.20
2015,08,15,09,38,16.20
2015,08,15,09,39,16.20
2015,08,15,09,40,16.20
2015,08,15,09,41,16.20
2015,08,15,09,42,16.20
2015,08,15,09,43,16.20
2015,08,15,09,44,16.20
2015,08,15,09,45,16.20
2015,08,15,09,46,16.20
2015,08,15,09,47,16.20
2015,08,15,09,48,16.20
2015,08,15,09,49,16.20
2015,08,15,09,50,16.20
2015,08,15,09,51,16.20
2015,08,15,09,52,16.20
2015,08,15,09,53,16.10
2015,08,15,09,54,16.10
2015,08,15,09,55,16.10
2015,08,15,09,56,16.10
2015,08,15,09,57,16.10
2015,08,15,09,58,16.10
2015,08,15,09,59,16.10
2015,08,15,10,00,16.10
2015,08,15,10,01,16.00
2015,08,15,10,02,16.00
2015,08,15,10,03,16.00
2015,08,15,10,04,16.00
2015,08,15,10,05,16.00
2015,08,15,10,06,16.00
2015,08,15,10,07,16.00
2015,08,15,10,08,16.00
2015,08,15,10,09,16.10
2015,08,15,10,10,16.10
2015,08,15,10,11,16.10
2015,08,15,10,12,16.10
2015,08,15,10,13,16.10
2015,08,15,10,14,16.10
2015,08,15,10,15,16.10
2015,08,15,10,16,16.10
2015,08,15,10,17,16.10
2015,08,15,10,18,16.20
2015,08,15,10,19,16.20
2015,08,15,10,20,16.20
2015,08,15,10,21,16.20
2015,08,15,10,22,16.30
2015,08,15,10,23,16.30
2015,08,15,10,24,16.30
2015,08,15,10,25,16.30
2015,08,15,10,26,16.30
2015,08,15,10,27,16.30
2015,08,15,10,28,16.30
2015,08,15,10,29,16.30
2015,08,15,10,30,16.30
2015,08,15,10,31,16.30
2015,08,15,10,32,16.40
2015,08,15,10,33,16.40
2015,08,15,10,34,16.40
2015,08,15,10,35,16.40
2015,08,15,10,36,16.40
2015,08,15,10,37,16.40
2015,08,15,10,38,16.40
2015,08,15,10,39,16.40
2015,08,15,10,40,16.40
2015,08,15,10,41,16.40
2015,08,15,10,42,16.40
2015,08,15,10,43,16.40
2015,08,15,10,44,16.40
2015,08,15,10,45,16.50
2015,08,15,10,46,16.50
2015,08,15,10,47,16.50
2015,08,15,10,48,16.50
2015,08,15,10,49,16.50
2015,08,15,10,50,16.40
2015,08,15,10,51,16.40
2015,08,15,10,52,16.40
2015,08,15,10,53,16.40
2015,08,15,10,54,16.40
2015,08,15,10,55,16.40
2015,08,15,10,56,16.40
2015,08,15,10,57,16.40
2015,08,15,10,58,16.40
2015,08,15,10,59,16.50
2015,08,15,11,00,16.50
2015,08,15,11,01,16.50
2015,08,15,11,02,16.50
2015,08,15,11,03,16.50
2015,08,15,11,04,16.50
2015,08,15,11,05,16.50
2015,08,15,11,06,16.50
2015,08,15,11,07,16.50
2015,08,15,11,08,16.50
2015,08,15,11,09,16.40
2015,08,15,11,10,16.40
2015,08,15,11,11,16.50
2015,08,15,11,12,16.50
2015,08,15,11,13,16.50
2015,08,15,11,14,16.60
2015,08,15,11,15,16.60
2015,08,15,11,16,16.60
2015,08,15,11,17,16.60
2015,08,15,11,18,16.60
2015,08,15,11,19,16.60
2015,08,15,11,20,16.50
2015,08,15,11,21,16.50
2015,08,15,11,22,16.50
2015,08,15,11,23,16.50
2015,08,15,11,24,16.50
2015,08,15,11,25,16.40
2015,08,15,11,26,16.40
2015,08,15,11,27,16.40
2015,08,15,11,28,16.40
2015,08,15,11,29,16.40
2015,08,15,11,30,16.40
2015,08,15,11,31,16.40
2015,08,15,11,32,16.50
2015,08,15,11,33,16.50
2015,08,15,11,34,16.50
2015,08,15,11,35,16.50
2015,08,15,11,36,16.50
2015,08,15,11,37,16.50
2015,08,15,11,38,16.50
2015,08,15,11,39,16.50
2015,08,15,11,40,16.40
2015,08,15,11,41,16.40
2015,08,15,11,42,16.40
2015,08,15,11,43,16.40
2015,08,15,11,44,16.40
2015,08,15,11,45,16.40
2015,08,15,11,46,16.40
2015,08,15,11,47,16.40
2015,08,15,11,48,16.40
2015,08,15,11,49,16.40
2015,08,15,11,50,16.40
2015,08,15,11,51,16.40
2015,08,15,11,52,16.40
2015,08,15,11,53,16.40
2015,08,15,11,54,16.40
2015,08,15,11,55,16.40
2015,08,15,11,56,16.40
2015,08,15,11,57,16.50
2015,08,15,11,58,16.50
2015,08,15,11,59,16.50
2015,08,15,12,00,16.50
2015,08,15,12,01,16.50
2015,08,15,12,02,16.60
2015,08,15,12,03,16.60
2015,08,15,12,04,16.60
2015,08,15,12,05,16.60
2015,08,15,12,06,16.60
2015,08,15,12,07,16.70
2015,08,15,12,08,16.70
2015,08,15,12,09,16.80
2015,08,15,12,10,16.80
2015,08,15,12,11,16.80
2015,08,15,12,12,16.90
2015,08,15,12,13,16.90
2015,08,15,12,14,16.90
2015,08,15,12,15,16.90
2015,08,15,12,16,16.90
2015,08,15,12,17,16.90
2015,08,15,12,18,17.00
2015,08,15,12,19,17.00
2015,08,15,12,20,17.00
2015,08,15,12,21,17.00
2015,08,15,12,22,17.10
2015,08,15,12,23,17.10
2015,08,15,12,24,17.10
2015,08,15,12,25,17.10
2015,08,15,12,26,17.10
2015,08,15,12,27,17.10
2015,08,15,12,28,17.10
2015,08,15,12,29,17.10
2015,08,15,12,30,17.10
2015,08,15,12,31,17.10
2015,08,15,12,32,17.20
2015,08,15,12,33,17.20
2015,08,15,12,34,17.20
2015,08,15,12,35,17.20
2015,08,15,12,36,17.20
2015,08,15,12,37,17.20
2015,08,15,12,38,17.20
2015,08,15,12,39,17.20
2015,08,15,12,40,17.20
2015,08,15,12,41,17.30
2015,08,15,12,42,17.30
2015,08,15,12,43,17.30
2015,08,15,12,44,17.40
2015,08,15,12,45,17.40
2015,08,15,12,46,17.40
2015,08,15,12,47,17.40
2015,08,15,12,48,17.50
2015,08,15,12,49,17.50
2015,08,15,12,50,17.50
2015,08,15,12,51,17.50
2015,08,15,12,52,17.60
2015,08,15,12,53,17.60
2015,08,15,12,54,17.60
2015,08,15,12,55,17.70
2015,08,15,12,56,17.70
2015,08,15,12,57,17.70
2015,08,15,12,58,17.70
2015,08,15,12,59,17.70
2015,08,15,13,00,17.70
2015,08,15,13,01,17.70
2015,08,15,13,02,17.70
2015,08,15,13,03,17.70
2015,08,15,13,04,17.70
2015,08,15,13,05,17.70
2015,08,15,13,06,17.70
2015,08,15,13,07,17.70
2015,08,15,13,08,17.70
2015,08,15,13,09,17.70
2015,08,15,13,10,17.70
2015,08,15,13,11,17.80
2015,08,15,13,12,17.70
2015,08,15,13,13,17.80
2015,08,15,13,14,17.80
2015,08,15,13,15,17.80
2015,08,15,13,16,17.80
2015,08,15,13,17,17.80
2015,08,15,13,18,17.80
2015,08,15,13,19,17.80
2015,08,15,13,20,17.70
2015,08,15,13,21,17.70
2015,08,15,13,22,17.70
2015,08,15,13,23,17.70
2015,08,15,13,24,17.70
2015,08,15,13,25,17.80
2015,08,15,13,26,17.80
2015,08,15,13,27,17.80
2015,08,15,13,28,17.80
2015,08,15,13,29,17.80
2015,08,15,13,30,17.80
2015,08,15,13,31,17.80
2015,08,15,13,32,17.80
2015,08,15,13,33,17.80
2015,08,15,13,34,17.80
2015,08,15,13,35,17.80
2015,08,15,13,36,17.80
2015,08,15,13,37,17.80
2015,08,15,13,38,17.80
2015,08,15,13,39,17.80
2015,08,15,13,40,17.90
2015,08,15,13,41,17.90
2015,08,15,13,42,17.90
2015,08,15,13,43,17.90
2015,08,15,13,44,17.90
2015,08,15,13,45,17.90
2015,08,15,13,46,17.90
2015,08,15,13,47,18.00
2015,08,15,13,48,18.00
2015,08,15,13,49,18.00
2015,08,15,13,50,18.00
2015,08,15,13,51,18.00
2015,08,15,13,52,18.10
2015,08,15,13,53,18.10
2015,08,15,13,54,18.10
2015,08,15,13,55,18.10
2015,08,15,13,56,18.10
2015,08,15,13,57,18.20
2015,08,15,13,58,18.20
2015,08,15,13,59,18.20
2015,08,15,14,00,18.20
2015,08,15,14,01,18.20
2015,08,15,14,02,18.20
2015,08,15,14,03,18.20
2015,08,15,14,04,18.20
2015,08,15,14,05,18.20
2015,08,15,14,06,18.20
2015,08,15,14,07,18.20
2015,08,15,14,08,18.10
2015,08,15,14,09,18.10
2015,08,15,14,10,18.10
2015,08,15,14,11,18.10
2015,08,15,14,12,18.00
2015,08,15,14,13,18.00
2015,08,15,14,14,18.00
2015,08,15,14,15,18.00
2015,08,15,14,16,18.00
2015,08,15,14,17,18.00
2015,08,15,14,18,18.10
2015,08,15,14,19,18.10
2015,08,15,14,20,18.10
2015,08,15,14,21,18.10
2015,08,15,14,22,18.10
2015,08,15,14,23,18.10
2015,08,15,14,24,18.10
2015,08,15,14,25,18.10
2015,08,15,14,26,18.10
2015,08,15,14,27,18.10
2015,08,15,14,28,18.10
2015,08,15,14,29,18.20
2015,08,15,14,30,18.10
2015,08,15,14,31,18.10
2015,08,15,14,32,18.20
2015,08,15,14,33,18.20
2015,08,15,14,34,18.20
2015,08,15,14,35,18.20
2015,08,15,14,36,18.20
2015,08,15,14,37,18.20
2015,08,15,14,38,18.20
2015,08,15,14,39,18.20
2015,08,15,14,40,18.30
2015,08,15,14,41,18.30
2015,08,15,14,42,18.30
2015,08,15,14,43,18.30
2015,08,15,14,44,18.40
2015,08,15,14,45,18.40
2015,08,15,14,46,18.40
2015,08,15,14,47,18.40
2015,08,15,14,48,18.50
2015,08,15,14,49,18.50
2015,08,15,14,50,18.50
2015,08,15,14,51,18.50
2015,08,15,14,52,18.50
2015,08,15,14,53,18.40
2015,08,15,14,54,18.40
2015,08,15,14,55,18.40
2015,08,15,14,56,18.40
2015,08,15,14,57,18.30
2015,08,15,14,58,18.40
2015,08,15,14,59,18.40
2015,08,15,15,00,18.40
2015,08,15,15,01,18.50
2015,08,15,15,02,18.50
2015,08,15,15,03,18.50
2015,08,15,15,04,18.50
2015,08,15,15,05,18.60
2015,08,15,15,06,18.60
2015,08,15,15,07,18.70
2015,08,15,15,08,18.70
2015,08,15,15,09,18.70
2015,08,15,15,10,18.70
2015,08,15,15,11,18.70
2015,08,15,15,12,18.70
2015,08,15,15,13,18.70
2015,08,15,15,14,18.70
2015,08,15,15,15,18.70
2015,08,15,15,16,18.70
2015,08,15,15,17,18.70
2015,08,15,15,18,18.70
2015,08,15,15,19,18.70
2015,08,15,15,20,18.70
2015,08,15,15,21,18.70
2015,08,15,15,22,18.80
2015,08,15,15,23,18.80
2015,08,15,15,24,18.80
2015,08,15,15,25,18.80
2015,08,15,15,26,18.80
2015,08,15,15,27,18.70
2015,08,15,15,28,18.70
2015,08,15,15,29,18.70
2015,08,15,15,30,18.70
2015,08,15,15,31,18.70
2015,08,15,15,32,18.70
2015,08,15,15,33,18.60
2015,08,15,15,34,18.60
2015,08,15,15,35,18.60
2015,08,15,15,36,18.60
2015,08,15,15,37,18.60
2015,08,15,15,38,18.60
2015,08,15,15,39,18.60
2015,08,15,15,40,18.60
2015,08,15,15,41,18.60
2015,08,15,15,42,18.60
2015,08,15,15,43,18.70
2015,08,15,15,44,18.70
2015,08,15,15,45,18.60
2015,08,15,15,46,18.60
2015,08,15,15,47,18.70
2015,08,15,15,48,18.70
2015,08,15,15,49,18.70
2015,08,15,15,50,18.80
2015,08,15,15,51,18.80
2015,08,15,15,52,18.80
2015,08,15,15,53,18.90
2015,08,15,15,54,18.90
2015,08,15,15,55,18.90
2015,08,15,15,56,19.00
2015,08,15,15,57,19.00
2015,08,15,15,58,19.10
2015,08,15,15,59,19.10
2015,08,15,16,00,19.10
2015,08,15,16,01,19.10
2015,08,15,16,02,19.10
2015,08,15,16,03,19.10
2015,08,15,16,04,19.10
2015,08,15,16,05,19.10
2015,08,15,16,06,19.10
2015,08,15,16,07,19.10
2015,08,15,16,08,19.10
2015,08,15,16,09,19.00
2015,08,15,16,10,19.00
2015,08,15,16,11,18.90
2015,08,15,16,12,18.90
2015,08,15,16,13,18.90
2015,08,15,16,14,18.90
2015,08,15,16,15,18.90
2015,08,15,16,16,18.80
2015,08,15,16,17,18.80
2015,08,15,16,18,18.80
2015,08,15,16,19,18.70
2015,08,15,16,20,18.70
2015,08,15,16,21,18.70
2015,08,15,16,22,18.70
2015,08,15,16,23,18.80
2015,08,15,16,24,18.80
2015,08,15,16,25,18.80
2015,08,15,16,26,18.80
2015,08,15,16,27,18.80
2015,08,15,16,28,18.80
2015,08,15,16,29,18.80
2015,08,15,16,30,18.80
2015,08,15,16,31,18.80
2015,08,15,16,32,18.80
2015,08,15,16,33,18.80
2015,08,15,16,34,18.90
2015,08,15,16,35,18.90
2015,08,15,16,36,18.90
2015,08,15,16,37,18.90
2015,08,15,16,38,18.90
2015,08,15,16,39,18.90
2015,08,15,16,40,18.90
2015,08,15,16,41,18.90
2015,08,15,16,42,18.90
2015,08,15,16,43,18.90
2015,08,15,16,44,18.90
2015,08,15,16,45,19.00
2015,08,15,16,46,18.90
2015,08,15,16,47,18.90
2015,08,15,16,48,18.90
2015,08,15,16,49,18.90
2015,08,15,16,50,18.90
2015,08,15,16,51,18.90
2015,08,15,16,52,18.90
2015,08,15,16,53,18.80
2015,08,15,16,54,18.80
2015,08,15,16,55,18.80
2015,08,15,16,56,18.80
2015,08,15,16,57,18.70
2015,08,15,16,58,18.70
2015,08,15,16,59,18.70
2015,08,15,17,00,18.70
2015,08,15,17,01,18.60
2015,08,15,17,02,18.60
2015,08,15,17,03,18.50
2015,08,15,17,04,18.50
2015,08,15,17,05,18.40
2015,08,15,17,06,18.40
2015,08,15,17,07,18.40
2015,08,15,17,08,18.50
2015,08,15,17,09,18.50
2015,08,15,17,10,18.60
2015,08,15,17,11,18.60
2015,08,15,17,12,18.60
2015,08,15,17,13,18.60
2015,08,15,17,14,18.60
2015,08,15,17,15,18.70
2015,08,15,17,16,18.60
2015,08,15,17,17,18.60
2015,08,15,17,18,18.60
2015,08,15,17,19,18.60
2015,08,15,17,20,18.60
2015,08,15,17,21,18.60
2015,08,15,17,22,18.60